TimeCST,TemperatureF,Dew PointF,Humidity,Sea Level PressureIn,VisibilityMPH,Wind Direction,Wind SpeedMPH,Gust SpeedMPH,PrecipitationIn,Events,Conditions,WindDirDegrees,DateUTC
12:56 AM,-9999,-9999,N/A,30.28,-9999.0,North,-9999.0,-,N/A,,Unknown,0,2013-01-10 06:56:00
1:56 AM,-9999,-9999,N/A,30.26,-9999.0,North,-9999.0,-,N/A,,Unknown,0,2013-01-10 07:56:00
2:56 AM,-9999,-9999,N/A,30.25,-9999.0,North,-9999.0,-,N/A,,Unknown,0,2013-01-10 08:56:00
3:56 AM,-9999,-9999,N/A,30.24,-9999.0,North,-9999.0,-,N/A,,Unknown,0,2013-01-10 09:56:00
4:56 AM,-9999,-9999,N/A,30.23,-9999.0,North,-9999.0,-,N/A,,Unknown,0,2013-01-10 10:56:00
5:56 AM,-9999,-9999,N/A,30.21,-9999.0,North,-9999.0,-,N/A,,Unknown,0,2013-01-10 11:56:00
6:56 AM,-9999,-9999,N/A,30.22,-9999.0,North,-9999.0,-,N/A,,Unknown,0,2013-01-10 12:56:00
7:56 AM,69.1,66.0,90,30.24,10.0,ESE,16.1,-,N/A,,Overcast,120,2013-01-10 13:56:00
8:56 AM,68.0,64.9,90,30.26,10.0,SE,15.0,-,N/A,,Overcast,130,2013-01-10 14:56:00
9:13 AM,68.0,64.4,88,30.26,-9999.0,North,-9999.0,-,N/A,,Unknown,0,2013-01-10 15:13:00
10:35 AM,69.8,66.2,88,30.27,10.0,SE,13.8,23.0,N/A,,Overcast,140,2013-01-10 16:35:00
10:56 AM,69.1,66.0,90,30.26,10.0,SE,13.8,20.7,N/A,,Overcast,140,2013-01-10 16:56:00
11:56 AM,68.0,66.0,93,30.23,5.0,SE,10.4,-,N/A,,Overcast,140,2013-01-10 17:56:00
12:05 PM,68.0,66.2,94,30.23,6.0,SE,11.5,-,N/A,,Overcast,130,2013-01-10 18:05:00
12:23 PM,69.8,66.2,88,30.21,10.0,SE,11.5,-,N/A,,Overcast,130,2013-01-10 18:23:00
12:56 PM,70.0,66.0,87,30.21,10.0,SE,11.5,-,N/A,,Overcast,140,2013-01-10 18:56:00
1:09 PM,69.8,66.2,88,30.20,10.0,SE,16.1,23.0,N/A,,Overcast,140,2013-01-10 19:09:00
1:43 PM,71.6,66.2,83,30.19,10.0,SE,16.1,23.0,N/A,,Overcast,140,2013-01-10 19:43:00
1:56 PM,72.0,66.0,81,30.19,10.0,SE,15.0,21.9,N/A,,Overcast,130,2013-01-10 19:56:00
2:56 PM,71.1,66.0,84,30.20,-9999.0,SSE,13.8,20.7,N/A,,Unknown,150,2013-01-10 20:56:00
3:56 PM,-9999,-9999,N/A,30.19,-9999.0,SE,11.5,-,N/A,,Unknown,140,2013-01-10 21:56:00
4:28 PM,69.8,64.4,83,30.18,10.0,SE,13.8,21.9,N/A,,Overcast,140,2013-01-10 22:28:00
4:56 PM,70.0,64.9,84,30.18,10.0,SE,13.8,-,N/A,,Mostly Cloudy,130,2013-01-10 22:56:00
5:39 PM,69.8,64.4,83,30.17,10.0,SE,17.3,-,N/A,,Overcast,130,2013-01-10 23:39:00
5:47 PM,69.8,64.4,83,30.17,10.0,SE,16.1,-,N/A,,Overcast,130,2013-01-10 23:47:00
5:56 PM,68.0,64.9,90,30.17,10.0,SE,10.4,-,N/A,,Overcast,130,2013-01-10 23:56:00
6:56 PM,64.0,62.1,93,30.18,10.0,South,11.5,18.4,0.17,Rain,Light Rain,190,2013-01-11 00:56:00
7:05 PM,64.4,62.6,94,30.18,10.0,South,8.1,-,0.00,Rain,Light Rain,180,2013-01-11 01:05:00
7:26 PM,64.4,62.6,94,30.19,10.0,South,5.8,-,0.01,Rain,Light Rain,180,2013-01-11 01:26:00
7:56 PM,64.0,61.0,90,30.15,10.0,South,9.2,-,0.02,Rain,Light Rain,180,2013-01-11 01:56:00
8:56 PM,64.0,61.0,90,30.12,10.0,SSE,13.8,-,0.01,Rain,Light Rain,160,2013-01-11 02:56:00
9:56 PM,64.0,61.0,90,30.14,10.0,SE,11.5,-,0.00,,Overcast,140,2013-01-11 03:56:00
10:56 PM,64.9,62.1,90,30.10,10.0,SE,8.1,-,N/A,,Overcast,140,2013-01-11 04:56:00
11:56 PM,64.9,61.0,87,30.05,10.0,ESE,16.1,-,0.01,,Partly Cloudy,120,2013-01-11 05:56:00